Probability
3 3 6 6 6 10 10 10 6 10 10 6 3 3 0 0 0 0 0 0 0 0 0 0 0 0 0 0 0 0 0 0 0 0 0 0 0 0 0 0 0 0 0
3 3 6 6 6 6 6 6 3 3 10 6 3 3 3 3 0 0 0 0 0 0 0 0 0 0 0 0 0 0 0 0 0 0 0 0 0 0 0 0 0 0 0
3 3 3 6 6 6 6 3 3 3 3 3 0 0 0 0 0 0 0 0 0 0 0 0 0 0 0 0 0 0 0 0 0 0 0 0 0 0 0 0 0 0 0
0 3 3 3 3 3 3 6 3 3 0 3 0 0 0 0 0 0 0 0 0 0 0 0 0 0 0 0 0 0 0 0 0 0 0 0 0 0 0 0 0 0 0
0 3 3 3 3 3 3 3 0 0 0 0 0 0 0 0 0 0 0 0 0 0 0 0 0 0 0 0 0 0 0 0 0 0 0 0 0 0 0 0 0 0 0
0 0 0 3 3 3 3 3 0 0 0 0 0 0 0 0 0 0 0 0 0 0 0 0 0 0 0 0 0 0 0 0 0 0 0 0 0 0 0 0 0 0 0
0 0 0 0 0 0 0 0 0 3 0 0 0 0 0 0 0 0 0 0 0 0 0 0 0 0 0 0 0 0 0 0 0 0 0 0 0 0 0 0 0 0 0
0 0 0 0 0 0 0 0 0 0 0 0 0 0 0 0 0 0 0 0 0 0 0 0 0 0 0 0 0 0 0 0 0 0 0 0 0 0 0 0 0 0 0
0 0 0 0 0 0 0 0 0 0 0 0 0 0 0 0 0 0 0 0 0 0 0 0 0 0 0 0 0 0 0 0 0 0 0 0 0 0 0 0 0 0 0
0 0 0 0 0 0 0 0 0 0 0 0 0 0 0 0 0 0 0 0 0 0 0 0 0 0 0 0 0 0 0 0 0 0 0 0 0 0 0 0 0 0 0
0 0 0 0 0 0 0 0 0 0 0 0 0 0 0 0 0 0 0 0 0 0 0 0 0 0 0 0 0 0 0 0 0 0 0 0 0 0 0 0 0 0 0
0 0 0 0 0 0 0 0 0 0 0 0 0 0 0 0 0 0 0 0 0 0 0 0 0 0 0 0 0 0 0 0 0 0 0 0 0 0 0 0 0 0 0
0 0 0 0 0 0 0 0 0 0 0 0 0 0 0 0 0 0 0 0 0 0 0 0 0 0 0 0 0 0 0 0 0 0 0 0 0 0 0 0 0 0 0
0 0 0 0 0 0 0 0 0 0 0 0 0 0 0 0 0 0 0 0 0 0 0 0 0 0 0 0 0 0 0 0 0 0 0 0 0 0 0 0 0 0 0
0 0 0 0 0 0 0 0 0 0 0 0 0 0 0 0 0 0 0 0 0 0 0 0 0 0 0 0 0 0 0 0 0 0 0 0 0 0 0 0 0 0 0
0 0 0 0 0 0 0 0 0 0 0 0 0 0 0 0 0 0 0 0 0 0 0 0 0 0 0 0 0 0 0 0 0 0 0 0 0 0 0 0 0 0 0
0 0 0 0 0 0 0 0 0 0 0 0 0 0 0 0 0 0 0 0 0 0 0 0 0 0 0 0 0 0 0 0 0 0 0 0 0 0 0 0 0 0 0
0 0 0 0 0 0 0 0 0 0 0 0 0 0 0 0 0 0 0 0 0 0 0 0 0 0 0 0 0 0 0 0 0 0 0 0 0 0 0 0 0 0 0
0 0 0 0 0 0 0 0 0 0 0 0 0 0 0 0 0 0 0 0 0 0 0 0 0 0 0 0 0 0 0 0 0 0 0 0 0 0 0 0 0 0 0
0 0 0 0 0 0 0 0 0 0 0 0 0 0 0 0 0 0 0 0 0 0 0 0 0 0 0 0 0 0 0 0 0 0 0 0 0 0 0 0 0 0 0
0 0 0 0 0 0 0 0 0 0 0 0 0 0 0 0 0 0 0 0 0 0 0 0 0 0 0 0 0 0 0 0 0 0 0 0 0 0 0 0 0 0 0
0 0 0 0 0 0 0 0 0 0 0 0 0 0 0 0 0 0 0 0 0 0 0 0 0 0 0 0 0 0 0 0 0 0 0 0 0 0 0 0 0 0 0
0 0 0 0 0 0 0 0 0 0 0 0 0 0 0 0 0 0 0 0 0 0 0 0 0 0 0 0 0 0 0 0 0 0 0 0 0 0 0 0 0 0 0
0 0 0 0 0 0 0 0 0 0 0 0 0 0 0 0 0 0 0 0 0 0 0 0 0 0 0 0 0 0 0 0 0 0 0 0 0 0 0 0 0 0 0
0 0 0 0 0 0 0 0 0 0 0 0 0 0 0 0 0 0 0 0 0 0 0 0 0 0 0 0 0 0 0 0 0 0 0 0 0 0 0 0 0 0 0
0 0 0 0 0 0 0 0 0 0 0 0 0 0 0 0 0 0 0 0 0 0 0 0 0 0 0 0 0 0 0 0 0 0 0 0 0 0 0 0 0 0 0
Height
5669 5673 5678 5682 5687 5692 5696 5700 5706 5711 5717 5722 5727 5732 5738 5744 5749 5754 5759 5764 5768 5773 5777 5781 5786 5790 5795 5799 5803 5807 5810 5814 5817 5820 5823 5825 5827 5829 5831 5832 5833 5835 5836
5657 5661 5665 5670 5674 5679 5684 5689 5694 5699 5705 5710 5715 5721 5726 5732 5738 5743 5748 5753 5758 5763 5767 5772 5777 5782 5786 5791 5795 5799 5803 5806 5810 5814 5816 5819 5822 5824 5826 5827 5828 5829 5831
5645 5649 5654 5658 5662 5667 5672 5677 5682 5687 5693 5698 5703 5708 5714 5719 5725 5731 5737 5743 5748 5753 5757 5763 5768 5772 5777 5782 5786 5790 5795 5799 5802 5806 5810 5813 5815 5818 5820 5821 5823 5824 5825
5633 5638 5642 5646 5651 5656 5660 5665 5670 5675 5680 5685 5691 5697 5702 5708 5714 5720 5726 5731 5737 5742 5747 5752 5758 5763 5768 5773 5777 5781 5786 5790 5794 5798 5802 5806 5809 5811 5813 5815 5817 5818 5820
5623 5627 5631 5635 5640 5645 5649 5654 5658 5663 5668 5673 5679 5685 5690 5696 5702 5709 5715 5721 5726 5731 5737 5742 5748 5753 5758 5763 5768 5772 5777 5781 5785 5790 5794 5797 5801 5804 5806 5808 5810 5812 5813
5612 5617 5620 5624 5628 5633 5638 5642 5647 5652 5657 5662 5666 5672 5678 5684 5690 5697 5703 5709 5715 5721 5726 5732 5737 5743 5749 5754 5759 5763 5768 5772 5776 5781 5785 5789 5792 5795 5798 5801 5803 5804 5806
5602 5606 5609 5613 5618 5622 5626 5631 5636 5641 5646 5650 5655 5661 5666 5672 5679 5685 5692 5698 5704 5710 5716 5721 5727 5733 5738 5744 5749 5754 5758 5763 5767 5772 5776 5780 5783 5786 5790 5792 5795 5797 5799
5593 5596 5599 5603 5607 5611 5615 5620 5625 5630 5635 5639 5644 5649 5655 5660 5666 5673 5680 5687 5693 5699 5705 5710 5716 5722 5728 5733 5738 5744 5749 5753 5758 5762 5766 5770 5774 5778 5781 5784 5786 5789 5791
5584 5587 5590 5594 5597 5601 5605 5609 5614 5618 5623 5627 5632 5637 5643 5648 5654 5661 5668 5675 5682 5688 5694 5699 5706 5712 5717 5723 5728 5733 5738 5743 5748 5752 5756 5761 5765 5768 5772 5775 5778 5781 5783
5575 5578 5581 5584 5587 5591 5594 5598 5603 5608 5612 5616 5621 5626 5632 5637 5643 5649 5657 5664 5670 5676 5682 5688 5694 5700 5706 5712 5717 5722 5728 5733 5737 5742 5746 5751 5755 5758 5762 5765 5768 5771 5774
5566 5568 5571 5574 5577 5581 5584 5588 5592 5596 5600 5605 5610 5615 5620 5625 5631 5638 5645 5652 5658 5664 5670 5677 5683 5689 5695 5700 5706 5711 5716 5722 5727 5731 5736 5740 5744 5748 5751 5755 5758 5761 5764
5558 5559 5562 5565 5568 5571 5574 5577 5581 5585 5589 5594 5599 5603 5608 5614 5620 5627 5633 5639 5646 5652 5659 5665 5671 5677 5683 5689 5694 5699 5705 5710 5715 5720 5725 5730 5734 5738 5741 5744 5748 5751 5753
5549 5551 5553 5555 5558 5561 5563 5566 5569 5573 5578 5582 5587 5592 5596 5602 5608 5615 5621 5627 5634 5640 5647 5653 5660 5665 5671 5677 5683 5688 5694 5698 5704 5709 5714 5718 5723 5727 5731 5734 5737 5740 5743
5541 5542 5544 5546 5548 5550 5552 5555 5558 5562 5566 5570 5574 5580 5585 5590 5597 5603 5609 5615 5621 5629 5635 5641 5648 5653 5659 5665 5671 5676 5681 5687 5692 5697 5702 5707 5711 5715 5719 5723 5726 5729 5732
5533 5534 5535 5536 5538 5540 5542 5544 5547 5550 5554 5558 5563 5568 5573 5579 5585 5591 5597 5603 5610 5617 5623 5630 5635 5641 5647 5653 5659 5664 5670 5675 5680 5686 5690 5695 5699 5703 5707 5711 5715 5718 5721
5525 5525 5526 5527 5528 5530 5532 5533 5536 5539 5542 5546 5551 5556 5561 5567 5573 5579 5585 5591 5598 5605 5611 5618 5624 5630 5636 5641 5647 5652 5658 5663 5668 5673 5678 5683 5687 5691 5695 5699 5703 5706 5709
5516 5516 5517 5518 5519 5520 5522 5523 5525 5528 5531 5535 5538 5543 5548 5554 5560 5567 5573 5580 5586 5592 5599 5606 5612 5618 5624 5629 5635 5640 5645 5651 5656 5661 5666 5670 5675 5679 5683 5687 5690 5694 5696
5508 5507 5508 5508 5509 5510 5511 5513 5514 5517 5520 5523 5527 5531 5536 5542 5548 5554 5560 5567 5574 5580 5586 5593 5599 5605 5611 5617 5623 5628 5633 5638 5643 5648 5653 5658 5662 5666 5670 5674 5677 5680 5683
5499 5499 5499 5499 5500 5500 5501 5502 5504 5506 5509 5512 5515 5519 5523 5529 5535 5541 5547 5554 5560 5567 5573 5580 5586 5592 5599 5604 5610 5615 5620 5626 5631 5636 5641 5645 5650 5654 5658 5661 5665 5668 5670
5491 5490 5490 5490 5490 5490 5491 5492 5493 5495 5498 5500 5504 5507 5511 5516 5522 5527 5534 5540 5547 5554 5560 5567 5573 5579 5585 5591 5597 5603 5608 5614 5619 5624 5628 5633 5637 5641 5644 5648 5651 5655 5658
5482 5481 5481 5480 5481 5481 5481 5482 5483 5485 5486 5489 5492 5495 5499 5504 5509 5515 5521 5527 5533 5540 5547 5554 5560 5566 5572 5578 5584 5589 5595 5601 5606 5611 5616 5620 5624 5628 5631 5634 5638 5641 5644
5474 5473 5472 5471 5471 5471 5471 5472 5473 5474 5476 5478 5481 5484 5488 5492 5497 5502 5508 5513 5519 5526 5532 5539 5546 5552 5558 5564 5570 5575 5581 5587 5593 5598 5603 5607 5610 5614 5617 5621 5624 5627 5629
5466 5464 5463 5463 5463 5462 5462 5462 5463 5464 5466 5468 5470 5473 5477 5480 5484 5489 5495 5500 5506 5512 5519 5525 5532 5539 5545 5550 5556 5562 5568 5573 5579 5584 5589 5593 5597 5600 5603 5606 5610 5612 5614
5458 5456 5455 5454 5453 5453 5452 5452 5453 5454 5456 5458 5461 5463 5465 5469 5472 5477 5482 5488 5494 5499 5506 5512 5519 5525 5531 5537 5543 5548 5554 5560 5565 5570 5575 5579 5583 5586 5589 5593 5595 5598 5600
5450 5448 5447 5446 5445 5444 5444 5444 5445 5446 5447 5449 5451 5453 5455 5457 5461 5466 5471 5476 5482 5488 5494 5500 5506 5512 5518 5524 5530 5535 5541 5546 5551 5555 5560 5564 5568 5571 5575 5578 5581 5583 5585
5442 5441 5440 5438 5438 5437 5436 5436 5436 5437 5438 5440 5441 5443 5445 5447 5451 5455 5460 5464 5470 5476 5481 5487 5493 5499 5505 5511 5516 5522 5527 5532 5537 5541 5546 5550 5553 5557 5560 5564 5566 5569 5571
Wind_Speed
46 47 48 49 49 50 50 49 49 50 49 48 48 49 49 49 48 48 47 46 44 43 42 42 40 38 37 36 35 34 33 32 31 29 28 27 26 24 23 22 21 21 20
45 46 47 48 49 49 50 49 50 50 50 50 49 48 49 49 49 49 48 47 46 44 43 43 43 41 39 38 37 36 35 34 33 31 30 29 27 25 24 23 23 22 22
44 46 46 47 48 48 49 50 50 50 50 51 50 50 50 50 51 51 49 49 47 46 45 44 43 43 42 40 39 38 37 36 35 34 32 30 28 27 26 25 24 24 23
43 44 45 46 47 47 48 50 50 51 51 51 51 50 50 51 51 51 50 49 49 49 47 46 45 45 44 42 41 40 39 38 37 36 34 33 31 30 29 28 27 26 26
42 43 44 45 46 46 47 49 50 50 51 52 52 51 50 50 51 52 52 51 50 50 48 48 47 46 45 44 42 41 40 40 39 38 37 36 34 32 30 30 29 29 28
41 42 44 45 45 46 47 47 49 50 50 50 52 52 52 51 51 52 53 52 51 50 49 48 48 48 47 45 44 43 42 41 41 40 39 38 37 35 33 32 32 31 30
39 42 43 44 46 46 47 47 47 49 50 49 51 52 52 53 53 52 53 53 52 51 50 50 50 49 47 46 46 45 43 42 41 41 40 39 39 37 35 34 33 33 32
37 40 42 43 44 45 46 47 48 48 49 49 49 51 52 53 55 54 53 53 52 52 51 50 50 49 49 48 47 47 46 44 43 42 42 41 40 39 38 36 35 34 34
37 39 41 42 43 44 45 47 48 47 47 48 48 49 51 51 53 54 54 53 52 52 51 51 50 49 50 49 48 47 47 46 45 44 43 43 41 40 39 39 37 36 35
36 38 40 42 42 43 44 46 47 48 47 48 48 49 50 51 53 52 54 54 54 53 51 52 52 50 50 50 50 49 48 47 47 45 45 44 43 42 41 40 39 38 38
37 39 40 41 42 43 45 47 47 48 49 49 50 50 50 51 53 53 52 53 53 54 54 53 51 51 50 51 51 50 49 49 48 47 46 45 45 44 44 42 41 40 40
36 38 40 42 42 44 45 46 48 49 49 50 50 51 51 52 53 53 54 53 52 53 53 54 53 53 52 52 52 50 50 51 50 50 48 47 46 46 45 43 43 42 42
34 37 40 42 42 43 45 47 48 50 50 50 51 51 51 53 53 53 54 54 54 53 53 53 53 54 53 53 53 52 51 50 50 50 49 49 48 47 46 44 43 42 43
35 37 39 40 41 42 43 46 48 50 51 51 52 53 53 54 55 54 55 55 55 55 54 54 53 53 54 54 54 53 52 52 51 51 51 51 49 48 46 46 44 44 44
35 36 38 40 40 42 42 44 46 49 51 52 53 54 55 56 56 55 55 56 56 56 55 55 54 53 53 53 53 53 53 53 53 52 52 51 50 49 48 47 46 45 46
34 35 37 38 39 41 43 44 45 48 50 52 53 54 57 57 56 55 55 56 57 57 56 55 55 54 53 53 53 54 53 53 53 53 53 52 51 50 49 49 48 47 46
32 34 35 36 37 39 41 42 44 45 47 49 51 54 56 58 58 58 57 57 58 58 57 57 57 56 55 54 53 53 53 53 54 54 53 54 53 52 51 51 50 49 49
30 32 34 35 35 36 38 40 41 43 45 46 47 51 54 56 57 57 58 57 58 57 57 56 56 56 56 55 55 54 53 53 52 53 53 53 53 53 53 52 52 51 50
30 32 33 35 35 36 38 39 40 42 43 45 46 47 50 53 55 56 57 58 58 58 57 57 56 55 55 55 55 55 54 53 53 52 52 52 52 53 53 53 53 52 51
30 31 32 34 34 35 36 38 40 42 43 44 46 48 49 51 53 55 57 58 58 58 58 57 56 55 54 55 55 55 54 54 54 53 52 52 52 52 52 53 53 52 52
29 31 32 33 33 34 35 36 38 40 41 42 44 46 48 49 52 53 55 56 58 58 58 59 58 57 55 55 56 56 55 54 53 53 53 52 52 52 52 52 53 52 52
29 29 30 31 32 33 33 34 35 37 38 39 41 43 45 47 49 51 53 54 56 57 58 58 58 58 57 55 55 54 54 54 54 53 53 52 52 52 52 51 51 52 53
28 29 29 29 30 31 32 33 33 34 36 37 38 41 42 44 46 48 50 51 53 55 56 57 57 57 58 56 55 54 54 54 54 53 53 53 52 52 52 52 52 52 53
28 28 28 28 28 29 30 30 31 32 34 35 36 38 41 43 44 46 48 50 52 53 54 56 56 57 57 57 56 56 55 55 55 55 54 54 53 53 53 53 53 52 52
27 26 26 27 27 27 28 29 30 31 32 33 34 35 37 40 42 44 45 48 50 51 52 53 53 54 55 55 55 55 56 55 55 55 55 55 54 54 54 53 53 52 52
26 26 26 26 26 27 28 28 29 31 32 33 33 34 35 36 39 41 43 44 46 48 49 50 51 52 52 53 54 54 55 55 54 54 55 54 54 54 53 53 53 52 52
Wind_Direction
241 240 239 239 239 239 238 235 234 234 234 232 232 232 233 233 233 233 232 232 233 234 235 234 234 234 235 236 236 237 237 238 239 242 244 245 249 252 255 258 259 259 262
240 239 239 238 237 237 237 236 234 234 234 233 233 233 232 232 231 232 232 232 232 233 234 234 235 235 235 235 236 236 237 238 238 240 243 245 248 251 253 256 259 260 261
240 239 238 238 236 236 236 236 235 234 233 233 233 233 232 231 231 231 231 232 232 232 234 234 234 234 234 234 235 236 236 237 238 239 241 244 247 250 251 255 257 259 261
240 238 237 236 235 235 236 236 236 235 233 233 233 232 233 232 230 231 231 231 231 232 233 233 233 234 234 234 234 235 236 237 238 238 241 244 245 248 251 254 256 258 261
239 238 237 236 235 234 236 236 235 235 234 233 233 232 232 231 230 230 230 231 232 232 233 232 233 234 234 234 235 235 236 237 239 240 243 243 245 247 250 253 255 257 259
240 239 237 236 236 235 235 235 234 235 235 233 232 232 232 231 229 229 229 229 230 231 232 233 234 234 234 235 235 236 237 238 238 240 242 243 245 247 250 252 254 256 258
240 239 237 236 236 236 237 235 234 234 235 235 233 232 232 232 230 229 229 229 230 231 232 233 233 233 234 235 236 236 237 238 239 240 242 243 245 247 249 251 253 255 257
241 239 238 237 237 238 238 236 235 235 235 235 233 232 231 232 230 229 229 229 230 230 232 233 233 234 234 236 236 237 238 238 240 241 242 243 245 247 249 250 252 254 256
243 240 239 237 237 238 238 237 236 236 237 236 234 232 231 231 229 229 229 229 229 231 232 233 234 235 235 236 236 237 238 239 241 242 242 244 245 246 249 252 253 255 255
245 243 241 240 240 239 238 237 237 236 236 236 235 234 232 232 231 229 229 229 229 230 231 232 234 235 236 236 236 238 239 240 241 242 243 244 245 247 249 252 253 254 256
247 245 243 242 242 241 240 240 239 238 237 236 234 234 232 232 231 229 229 230 231 232 232 233 234 235 235 235 236 237 238 239 240 241 242 244 246 248 250 252 253 254 257
250 249 246 244 243 243 243 242 240 239 239 238 236 234 233 232 230 229 230 230 231 232 233 233 234 235 236 236 236 237 238 239 240 241 242 244 246 248 249 251 252 254 256
251 249 248 246 245 245 244 244 242 240 239 238 236 234 233 232 231 231 232 231 231 231 232 233 234 235 235 236 237 237 238 240 241 241 243 245 246 247 248 250 252 253 256
254 251 249 247 247 247 246 244 244 242 240 239 238 235 234 232 233 233 234 232 232 232 233 234 235 235 236 236 237 238 238 240 241 242 243 245 245 246 248 250 252 254 256
258 255 253 251 250 249 248 247 246 244 242 241 239 237 235 233 234 233 233 233 232 232 234 235 236 236 237 238 238 239 239 240 241 243 244 244 245 247 248 250 252 254 256
261 257 255 254 252 251 250 249 248 246 244 243 241 238 235 234 234 234 234 233 233 234 234 236 236 237 238 239 240 241 241 241 242 244 245 245 246 247 248 250 251 254 256
263 260 258 257 256 254 252 251 249 246 245 244 243 240 238 236 235 235 235 234 234 235 236 236 237 238 239 240 241 242 243 243 244 245 246 246 246 248 248 250 252 254 256
265 262 258 257 256 255 253 252 250 248 246 245 245 243 240 238 237 237 237 236 236 237 238 237 238 238 240 241 241 242 243 245 245 245 246 247 247 248 249 251 253 254 256
270 265 262 260 258 257 255 254 253 250 249 247 246 244 242 239 237 237 237 236 236 237 237 237 237 238 238 239 240 242 243 244 245 246 246 247 248 248 250 251 254 255 257
273 269 265 264 261 259 256 255 253 253 252 250 248 246 243 241 239 238 237 236 236 236 237 237 237 237 238 239 240 242 243 244 245 246 247 247 248 249 251 253 254 256 257
275 272 268 266 265 263 260 257 255 254 253 250 248 245 243 241 240 238 237 236 236 236 237 237 237 237 238 239 240 242 242 244 245 246 247 248 249 250 252 254 255 256 256
277 274 271 269 267 265 262 259 257 255 252 250 247 244 244 243 241 238 238 238 237 237 238 238 237 237 238 240 240 241 243 244 245 246 247 248 249 250 252 253 254 255 256
278 276 272 270 268 266 263 261 258 255 252 251 248 245 245 245 242 240 239 239 238 238 238 238 237 237 238 239 240 242 243 244 246 247 248 249 250 251 251 253 255 256 257
283 278 275 271 269 266 264 262 259 256 253 250 249 249 247 245 243 240 239 238 238 238 238 238 238 238 238 241 242 243 243 245 246 247 248 250 251 252 253 255 257 257 258
287 282 278 273 271 268 266 264 260 257 255 253 252 250 248 246 243 241 240 239 238 238 238 238 238 237 239 240 242 243 244 245 246 247 248 250 251 253 255 256 257 258 259
289 285 280 275 272 271 268 264 260 257 255 254 253 250 247 245 242 239 238 238 238 238 238 238 238 238 239 241 242 243 245 246 246 248 248 250 252 254 256 257 257 257 259